Location: Newark
(21.0333°N, 105.8500°E)
Time: 19:14:09
(UTC+00:00)

Envisat - Pass Details

Date: 09 December 2019
Orbit: 764 x 766 km, 98.1° (Epoch: 28 January)

Event Time Altitude Azimuth Distance (km) Brightness Sun altitude
Rises 11:24:56 0° 177° (S) 3,214 6.4 -15.9°
Reaches altitude 10° 11:27:16 10° 181° (S) 2,290 5.7 -16.4°
Maximum altitude 11:32:12 56° 259° (W) 906 3.7 -17.5°
Drops below altitude 10° 11:37:10 10° 337° (NNW) 2,298 5.5 -18.6°
Sets 11:39:31 0° 342° (NNW) 3,226 6.2 -19.1°
